Location: Houcks Corners
(42.5956°N, 73.8346°W)
Time: 03:58:36
(UTC+00:00)

Daily predictions for brighter satellites

Satellite Brightness Start Highest point End
(mag) Time Altitude Azimuth Time Altitude Azimuth Time Altitude Azimuth
Cosmos 1943 Rocket 4.2 00:01:13 10° N 00:02:23 16° N 00:02:23 16° N
Cosmos 1655 Rocket 4.1 00:00:20 10° S 00:05:31 61° SSE 00:05:31 61° SSE
SL-16 R/B 4.0 00:53:58 10° WSW 00:57:41 28° WNW 00:57:41 28° WNW
FALCON 9 R/B 3.9 08:46:22 38° SSE 08:47:09 39° SSE 09:01:50 10° E
Cosmos 2297 Rocket 4.3 09:15:39 16° NNE 09:15:39 16° NNE 09:16:42 10° NNE
Cosmos 2227 Rocket 4.2 09:19:28 17° N 09:19:28 17° N 09:20:48 10° NNE
Cosmos 614 Rocket 4.5 09:23:00 55° E 09:23:00 55° E 09:27:42 10° SE
Cosmos 1371 Rocket 4.2 09:28:07 65° ESE 09:28:14 66° ESE 09:33:25 10° NNE
Cosmos 407 Rocket 3.8 09:30:42 61° NE 09:31:11 65° ENE 09:36:29 10° SSE
Cosmos 1241 Rocket 4.2 09:33:55 82° W 09:34:05 84° WSW 09:40:17 10° SSE
Cosmos 1140 Rocket 4.3 09:32:50 35° NNE 09:34:31 47° ENE 09:39:32 10° SE
Cosmos 1933 Rocket 4.2 09:34:07 10° S 09:38:18 53° E 09:42:32 10° NNE
Cosmos 1891 Rocket 4.4 09:33:32 10° SSW 09:39:57 75° W 09:46:19 10° N
GEOS 3 Rocket 3.5 09:35:18 10° SE 09:40:24 83° NE 09:40:38 80° N
Cosmos 1464 Rocket 3.8 09:39:17 10° SSW 09:45:27 68° W 09:51:36 10° N
CZ-4C R/B 2.9 09:42:44 42° NW 09:45:43 89° NE 09:54:03 10° SE
Cosmos 1461 4.0 09:46:37 37° NNE 09:47:10 39° NE 09:51:16 10° ESE
SL-16 R/B 2.5 09:52:58 49° SW 09:52:58 49° SW 09:57:44 10° S
USA 234 3.4 09:51:27 10° NE 09:57:43 51° NNW 09:59:01 45° WNW
Cosmos 1603 4.4 09:54:46 20° N 09:58:37 53° ENE 10:04:10 10° SE
Lacrosse 5 3.2 10:00:37 25° SSW 10:00:37 25° SSW 10:03:28 10° S
Cosmos 2084 Rocket 3.8 10:01:08 50° N 10:02:00 62° NE 10:06:21 10° SE
COSMO-SKYMED 1 2.7 09:58:21 10° SSE 10:02:40 71° ENE 10:04:45 30° N
ATLAS 5 CENTAUR R/B 3.7 10:05:51 16° N 10:05:51 16° N 10:07:31 10° NNE
ALOS 3.0 09:59:59 10° NNE 10:04:34 52° E 10:09:07 10° S
Meteor 1-27 Rocket 3.9 10:06:20 40° NW 10:08:05 54° W 10:13:48 10° S
Okean O Rocket 2.9 10:05:52 10° NNE 10:10:01 41° E 10:14:10 10° S
Cosmos 1624 Rocket 4.0 10:09:18 25° SW 10:12:17 60° WNW 10:17:35 10° NNE
Cosmos 724 4.3 10:09:47 30° SW 10:12:49 63° NW 10:18:44 10° NNE
Cosmos 2242 Rocket 3.5 10:14:19 44° NW 10:15:33 64° W 10:20:00 10° S
Cosmos 2056 Rocket 3.4 10:15:01 28° SW 10:17:33 54° WNW 10:22:34 10° NNE
Cosmos 1703 Rocket 3.6 10:13:52 14° N 10:17:39 77° E 10:22:03 10° SSE
Cosmos 1484 Rocket 2.7 10:14:27 10° N 10:18:22 62° WNW 10:22:12 10° SSW
Nadezhda 4 Rocket 4.0 10:13:56 10° NNW 10:20:01 58° W 10:26:01 10° S
Meteor 1-20 Rocket 4.4 10:16:09 10° S 10:21:58 81° E 10:27:51 10° NNE
Cosmos 1190 Rocket 4.1 10:20:26 37° NW 10:22:03 52° WSW 10:27:06 10° S
PSLV R/B 3.8 10:18:36 10° N 10:22:39 59° WNW 10:26:41 10° SSW
Cosmos 676 Rocket 3.9 10:19:54 21° NNW 10:23:29 85° WSW 10:28:46 10° SSE
Geosat 4.1 10:23:13 10° S 10:28:08 55° WSW 10:30:33 29° NW
Cosmos 1932 4.4 10:22:01 10° SW 10:28:18 67° NW 10:34:44 10° NNE
Meteor 1-18 Rocket 4.4 10:26:50 10° N 10:32:23 72° ENE 10:37:56 10° SSE
STARLINK 1044 3.9 10:32:35 30° N 10:33:03 32° NNE 10:35:41 10° E
CZ-4B DEB 4.1 10:27:57 10° NNE 10:33:29 79° WNW 10:39:01 10° SSW
Cosmos 1869 Rocket 3.6 10:29:12 10° S 10:33:30 78° E 10:37:50 10° N
Cosmos 1954 Rocket 3.9 10:30:16 18° NNW 10:34:14 73° WSW 10:39:30 10° S
Cosmos 1420 Rocket 3.9 10:32:57 10° SSW 10:38:09 78° WNW 10:43:22 10° NNE
Cosmos 2263 Rocket 2.1 10:35:18 10° SSW 10:40:53 84° WNW 10:46:30 10° NNE
Cosmos 2026 Rocket 3.9 10:36:12 10° N 10:42:24 85° W 10:48:39 10° S
SJ-12 4.2 10:40:45 10° N 10:44:41 45° WNW 10:48:36 10° SW
FALCON 9 DEB 2.7 10:45:03 44° N 10:45:22 48° NNE 10:47:40 10° ESE
Cosmos 1346 Rocket 3.1 10:46:07 10° S 10:49:56 67° E 10:53:48 10° NNE
PSLV R/B 2.8 10:49:53 38° SW 10:50:33 57° S 10:52:57 10° E
Cosmos 1741 Rocket 4.4 10:45:27 10° NNW 10:50:39 63° ENE 10:55:49 10° SSE
SKYMED 2 4.2 10:46:57 10° SSW 10:50:53 34° W 10:53:26 19° NW
Cosmos 2279 Rocket 4.2 10:44:49 10° S 10:50:58 76° E 10:57:12 10° N
Cosmos 2227 4.3 10:45:51 10° SW 10:51:27 53° WNW 10:57:07 10° NNE
FALCON 9 DEB 2.5 10:51:08 41° NNW 10:51:43 58° NE 10:54:03 10° ESE
Cosmos 1634 Rocket 4.0 10:50:40 10° SSW 10:56:48 61° W 11:02:55 10° N
SL-24 R/B 4.2 10:53:13 10° SSE 10:57:50 86° ENE 11:02:06 10° NNW
Cosmos 1655 Rocket 4.4 10:57:17 10° N 11:03:31 69° E 11:09:42 10° SSE
Cosmos 1452 Rocket 3.5 10:59:02 10° SSW 11:04:13 59° WNW 11:09:28 10° NNE
H-2A R/B 3.5 11:01:19 10° NNE 11:05:00 55° E 11:08:41 10° S
CZ-4B R/B 3.2 11:00:29 10° N 11:06:00 64° WNW 11:11:34 10° SSW
FENGYUN 3A 3.9 11:02:53 10° N 11:08:00 44° WNW 11:13:03 10° SW
Meteor 1-14 Rocket 4.4 11:02:12 10° SSW 11:08:02 62° WNW 11:14:00 10° N
STARLINK 1050 3.4 11:06:34 17° NW 11:09:04 63° NNE 11:12:28 10° ESE
NOAA 6 4.1 11:04:39 10° N 11:09:38 54° WNW 11:14:37 10° SSW
CZ-4 R/B 4.5 11:07:54 10° NE 11:10:14 15° E 11:12:34 10° SE
STARLINK 1055 3.3 11:09:17 16° NW 11:11:54 66° NE 11:15:18 10° ESE
Cosmos 1850 Rocket 4.0 11:06:38 10° NNW 11:12:00 82° WSW 11:17:20 10° SSE
STARLINK 1022 3.3 11:11:16 15° NW 11:13:58 69° NE 11:17:23 10° ESE
Cosmos 1844 Rocket 4.3 11:09:53 10° S 11:15:01 39° ESE 11:20:10 10° NE
Okean 1-7 3.9 11:11:41 10° NNW 11:15:29 29° W 11:19:17 10° SSW
STARLINK 1042 3.2 11:14:34 14° NW 11:17:24 74° NE 11:20:49 10° ESE
STARLINK 1056 3.2 11:17:21 13° NW 11:20:18 79° NE 11:23:43 10° ESE
Starlink Launch 2 leader 2.5 11:18:37 17° WNW 11:20:20 55° SW 11:22:44 10° SE
Radarsat Rocket 4.1 11:15:01 10° NNE 11:21:09 76° WNW 11:28:01 10° SSW
CZ-2C R/B 4.5 11:17:33 10° SSE 11:22:09 57° ENE 11:26:50 10° N
Cosmos 1943 3.6 11:17:42 10° NW 11:23:01 44° WSW 11:28:18 10° S
Timation 1 Rocket 4.5 11:17:21 10° SW 11:23:07 51° WNW 11:28:57 10° NNE
STARLINK 1054 3.1 11:20:08 13° NW 11:23:12 83° NE 11:26:37 10° SE
Starlink Launch 2 trailer 2.7 11:22:09 15° WNW 11:24:01 48° SW 11:26:23 10° SE
Okean 1 4.2 11:22:22 10° NNW 11:25:49 29° W 11:29:15 10° SSW
STARLINK 1062 3.1 11:22:44 12° NW 11:25:55 88° NE 11:29:20 10° SE
Cosmos 1461 4.3 11:23:02 12° WNW 11:26:04 23° WSW 11:29:32 10° SSW
Cosmos 371 Rocket 3.5 11:23:14 10° SSW 11:28:03 78° ESE 11:32:56 10° NNE
STARLINK 1053 3.1 11:25:44 11° NW 11:29:02 87° SW 11:32:28 10° SE
STARLINK 1061 3.1 11:28:12 10° NW 11:31:36 83° SW 11:35:02 10° SE
Helios 1A Rocket 3.9 11:29:02 10° NNW 11:32:23 25° WNW 11:35:43 10° WSW
Meteor 1-19 Rocket 4.5 11:27:10 10° NNW 11:32:25 47° W 11:37:45 10° SSW
STARLINK 1027 2.8 11:29:51 11° WNW 11:32:41 67° SW 11:35:35 10° SE
STARLINK 1028 2.8 11:30:05 11° WNW 11:32:55 67° SW 11:35:49 10° SE
STARLINK 1021 2.8 11:30:19 10° WNW 11:33:09 66° SW 11:36:02 10° SE
STARLINK 1019 2.8 11:30:28 10° WNW 11:33:21 66° SW 11:36:17 10° SE
STARLINK 1034 2.8 11:30:37 10° WNW 11:33:29 66° SW 11:36:22 10° SE
STARLINK 1012 2.8 11:30:43 10° WNW 11:33:34 66° SW 11:36:28 10° SE
CZ-4C R/B 4.2 11:28:11 10° WNW 11:33:47 22° WSW 11:39:45 10° SSW
STARLINK 1010 2.8 11:30:56 10° WNW 11:33:48 65° SW 11:36:42 10° SE
SMAP 3.0 11:29:17 10° N 11:33:57 74° WNW 11:38:35 10° SSW
STARLINK 1026 2.8 11:31:11 10° WNW 11:34:04 65° SW 11:36:57 10° SE
STARLINK 1013 2.8 11:31:24 10° WNW 11:34:17 64° SW 11:37:11 10° SE
STARLINK 1067 3.1 11:31:03 10° NW 11:34:29 78° SW 11:37:55 10° SE
STARLINK 1009 2.8 11:31:36 10° WNW 11:34:29 64° SW 11:37:23 10° SE
STARLINK 1015 2.8 11:31:49 10° WNW 11:34:43 64° SW 11:37:37 10° SE
STARLINK 1016 2.8 11:32:01 10° WNW 11:34:55 63° SW 11:37:49 10° SE
STARLINK 1052 2.8 11:32:01 10° WNW 11:34:56 63° SW 11:37:50 10° SE
Cosmos 2221 Rocket 4.0 11:30:50 10° NNW 11:35:00 42° W 11:39:09 10° SSW
STARLINK 1008 2.8 11:32:15 10° WNW 11:35:09 63° SW 11:38:02 10° SE
STARLINK 1014 2.8 11:32:29 10° WNW 11:35:23 62° SW 11:38:17 10° SE
STARLINK 1017 2.8 11:32:42 10° WNW 11:35:37 62° SW 11:38:29 10° SE
STARLINK 1025 2.9 11:32:43 10° WNW 11:35:37 62° SW 11:38:31 10° SE
STARLINK 1023 2.9 11:33:10 10° WNW 11:36:03 61° SW 11:38:57 10° SE
STARLINK 1007 2.9 11:33:23 10° WNW 11:36:16 61° SW 11:39:09 10° SE
STARLINK 1048 2.9 11:33:37 10° WNW 11:36:31 60° SW 11:39:24 10° SE
STARLINK 1049 2.9 11:33:50 10° WNW 11:36:43 60° SW 11:39:36 10° SE
STARLINK 1051 2.9 11:34:04 10° WNW 11:36:58 60° SW 11:39:51 10° SE
STARLINK 1037 2.9 11:34:17 10° WNW 11:37:11 59° SW 11:40:04 10° SE
STARLINK 1058 3.2 11:33:52 10° WNW 11:37:18 74° SW 11:40:43 10° SE
STARLINK 1059 2.9 11:34:30 10° WNW 11:37:24 59° SW 11:40:17 10° SE
STARLINK 1057 2.9 11:34:44 10° WNW 11:37:38 59° SW 11:40:31 10° SE
STARLINK 1040 3.0 11:34:48 10° WNW 11:37:41 54° SW 11:40:33 10° SE
STARLINK 1068 2.9 11:35:11 10° WNW 11:38:05 58° SW 11:40:57 10° SE
STARLINK 1029 2.9 11:35:25 10° WNW 11:38:18 58° SW 11:41:10 10° SE
STARLINK 1060 2.9 11:35:40 10° WNW 11:38:33 57° SW 11:41:26 10° SE
STARLINK 1030 3.0 11:35:49 10° WNW 11:38:44 57° SW 11:41:39 10° SE
STARLINK 1020 3.0 11:36:06 10° WNW 11:38:59 57° SW 11:41:51 10° SE
STARLINK 1033 3.0 11:36:46 10° WNW 11:39:39 56° SW 11:42:30 10° SE
USA 234 4.3 11:34:31 10° NE 11:39:48 27° N 11:45:05 10° WNW
STARLINK 1031 3.0 11:37:00 10° WNW 11:39:53 55° SW 11:42:45 10° SE
STARLINK 1024 3.0 11:37:11 10° WNW 11:40:05 55° SW 11:42:59 10° SE
STARLINK 1043 3.2 11:36:44 10° WNW 11:40:10 69° SW 11:43:35 10° SE
STARLINK 1035 3.0 11:37:27 10° WNW 11:40:20 55° SW 11:43:12 10° SE
STARLINK 1032 3.0 11:37:40 10° WNW 11:40:32 54° SW 11:43:24 10° SE
STARLINK 1011 3.0 11:37:52 10° WNW 11:40:46 54° SW 11:43:40 10° SE
STARLINK 1036 3.0 11:38:08 10° WNW 11:41:00 54° SW 11:43:51 10° SE
SAR-Lupe-2 4.0 11:37:34 10° SSE 11:41:06 64° ENE 11:44:40 10° N
Cosmos 44 3.1 11:36:32 10° SW 11:41:19 77° WNW 11:45:53 10° NNE
STARLINK 1047 3.0 11:38:34 10° WNW 11:41:27 53° SW 11:44:18 10° SE
ALOS 3.6 11:38:28 10° NNW 11:41:35 18° WNW 11:44:40 10° WSW
Meteor 1-5 Rocket 4.4 11:36:06 10° SSW 11:42:04 79° W 11:48:00 10° N
STARLINK 1065 3.3 11:39:32 10° WNW 11:42:57 65° SW 11:46:22 10° SE
Cosmos 1500 3.2 11:39:20 10° SSW 11:43:09 64° W 11:46:58 10° N
Cosmos 1340 3.8 11:40:21 10° SW 11:43:24 23° WNW 11:46:30 10° NNW
Cosmos 1515 4.2 11:40:41 10° NNW 11:44:16 40° W 11:47:50 10° SSW
Meteor 2-4 Rocket 3.8 11:40:35 10° NNW 11:46:00 57° W 11:51:15 10° S
ADEOS Rocket 3.3 11:39:31 10° S 11:46:41 72° WSW 11:53:11 10° NNW
